Ardabil, Iran

2:37 PM +0330 on October 14, 2019 (GMT +0330)
Ardabil

Weather History for OITL - August, 2019

Change the Weather History Date:

Saturday, August 24, 2019

  Actual Average (WUND) Record (WUND)
Temperature  
Mean Temperature 68 °F -  
Max Temperature 86 °F - - (-1)
Min Temperature 50 °F - - (-1)
Cooling Degree Days 3    
Growing Degree Days 18 (Base 50)    
Moisture  
Dew Point 46 °F    
Average Humidity 39    
Maximum Humidity 62    
Minimum Humidity 26    
Precipitation  
Precipitation 0.00 in - - ()
Sea Level Pressure  
Sea Level Pressure 30.05 in    
Wind  
Wind Speed 14 mph ()    
Max Wind Speed 38 mph    
Max Gust Speed -    
Visibility 6.2 miles    
Events      
Averages and records for this station are not official NWS values.
T = Trace of Precipitation, MM = Missing Value Source: Averaged Metar Reports

Daily Weather History Graph

Daily Weather History Graph

Search for Another Location

Airport or City:

Astronomy

Aug. 24, 2019 Rise Set
Actual Time 6:38 AM +0430 7:58 PM +0430
Civil Twilight 6:10 AM +0430 8:26 PM +0430
Nautical Twilight 5:37 AM +0430 8:59 PM +0430
Astronomical Twilight 5:02 AM +0430 9:33 PM +0430
Moon No Moon Rise 2:47 PM +0430 (8/24)
Length of Visible Light 14h 15m
Length of Day
13h 20m
Last Quarter, 43% of the Moon is Illuminated
Aug 24
Last Quarter
Aug 30
New
Sep 6
First Quarter
Sep 14
Full
Sep 22
Last Quarter

Hourly Weather History & Observations

Time (+0430) Temp. Dew Point Humidity Pressure Visibility Wind Dir Wind Speed Gust Speed Precip Events Conditions
12:22 AM 60.8 °F 42.8 °F 52% 30.04 in - SSE 6.9 mph - N/A   Clear
1:21 AM 59.0 °F 42.8 °F 55% 30.04 in - Calm Calm - N/A   Clear
2:21 AM 55.4 °F 41.0 °F 58% 30.04 in - SSE 6.9 mph - N/A   Clear
3:21 AM 53.6 °F 37.4 °F 54% 30.04 in - SSE 4.6 mph - N/A   Clear
4:21 AM 51.8 °F 37.4 °F 58% 30.06 in - SSE 6.9 mph - N/A   Clear
5:23 AM 50.0 °F 35.6 °F 58% 30.06 in - East 4.6 mph - N/A   Clear
6:20 AM 50.0 °F 37.4 °F 62% 30.06 in - East 4.6 mph - N/A   Clear
7:24 AM 53.6 °F 37.4 °F 54% 30.09 in - SSE 4.6 mph - N/A   Clear
8:20 AM 60.8 °F 37.4 °F 42% 30.09 in - Calm Calm - N/A   Clear
8:30 AM 60.8 °F 37.4 °F 42% 30.09 in - Calm Calm - N/A   Clear
9:21 AM 71.6 °F 42.8 °F 35% 30.09 in - East 4.6 mph - N/A   Clear
9:30 AM 71.6 °F 42.8 °F 35% 30.09 in - East 4.6 mph - N/A   Clear
10:21 AM 82.4 °F 44.6 °F 26% 30.06 in - ENE 19.6 mph - N/A   Clear
10:30 AM 82.4 °F 44.6 °F 26% 30.06 in - ENE 19.6 mph - N/A   Clear
11:21 AM 84.2 °F 48.2 °F 29% 30.06 in - ENE 24.2 mph - N/A   Clear
11:30 AM 84.2 °F 48.2 °F 29% 30.06 in - ENE 24.2 mph - N/A   Clear
12:00 PM 84.2 °F 50.0 °F 30% 30.06 in 6.2 mi ENE 28.8 mph - N/A   Partly Cloudy
12:20 PM 84.2 °F 50.0 °F 30% 30.06 in 6.2 mi ENE 28.8 mph - N/A   Partly Cloudy
1:00 PM 84.2 °F 50.0 °F 30% 30.06 in 6.2 mi ENE 31.1 mph - N/A   Partly Cloudy
1:21 PM 84.2 °F 51.8 °F 33% 30.04 in 6.2 mi East 26.5 mph - N/A   Partly Cloudy
1:30 PM 84.2 °F 51.8 °F 33% 30.04 in 6.2 mi East 26.5 mph - N/A   Partly Cloudy
2:21 PM 86.0 °F 50.0 °F 29% 30.04 in 6.2 mi East 28.8 mph - N/A   Partly Cloudy
2:30 PM 86.0 °F 50.0 °F 29% 30.04 in 6.2 mi East 28.8 mph - N/A   Partly Cloudy
3:22 PM 84.2 °F 50.0 °F 30% 30.01 in 6.2 mi East 33.4 mph - N/A   Partly Cloudy
4:22 PM 82.4 °F 51.8 °F 35% 30.01 in 6.2 mi ENE 38.0 mph - N/A   Partly Cloudy
4:30 PM 82.4 °F 51.8 °F 35% 30.01 in 6.2 mi ENE 38.0 mph - N/A   Partly Cloudy
5:22 PM 80.6 °F 51.8 °F 37% 30.01 in 6.2 mi ENE 35.7 mph - N/A   Partly Cloudy
5:30 PM 80.6 °F 51.8 °F 37% 30.01 in 6.2 mi ENE 35.7 mph - N/A   Partly Cloudy
6:22 PM 77.0 °F 50.0 °F 39% 30.01 in 6.2 mi ENE 31.1 mph - N/A   Partly Cloudy
7:20 PM 75.2 °F 50.0 °F 41% 30.01 in 6.2 mi ENE 28.8 mph - N/A   Partly Cloudy
7:30 PM 75.2 °F 50.0 °F 41% 30.01 in 6.2 mi ENE 28.8 mph - N/A   Partly Cloudy
8:22 PM 73.4 °F 50.0 °F 44% 30.01 in - ENE 26.5 mph - N/A   Clear
9:23 PM 73.4 °F 44.6 °F 36% 30.04 in - ENE 26.5 mph - N/A   Clear
10:20 PM 71.6 °F 44.6 °F 38% 30.09 in - ENE 21.9 mph - N/A   Clear
11:22 PM 69.8 °F 41.0 °F 35% 30.09 in - ENE 16.1 mph - N/A   Clear